Tracking 28238 objects as of 28-Nov-2023
HD Live streaming from Space Station
objects crossing your sky now

MEZNSAT

Track MEZNSAT now!
10-day predictions
MEZNSAT is classified as:


NORAD ID: 46489
Int'l Code: 2020-068D
Perigee: 512.6 km
Apogee: 528.6 km
Inclination: 97.8 °
Period: 94.9 minutes
Semi major axis: 6891 km
RCS: Unknown
Launch date: September 28, 2020
Source: (UNK)
Launch site: PLESETSK MISSILE AND SPACE COMPLEX (PKMTR)

Uplink (MHz):
Downlink (MHz): 436.600
Beacon (MHz):
Mode: 1k2/2k4/4k8 BPSK
Call sign: A68MZ
Status: Active

Your satellite tracking list
Your tracking list is empty




NASA's NSSDC Master Catalog

Two Line Element Set (TLE):
1 46489U 20068D   23332.43708453  .00021151  00000-0  10553-2 0  9990
2 46489  97.7874 286.0476 0011587 273.1565  86.8342 15.17483803174091
Source of the keplerian elements: AFSPC